Regional Weather Roundup
Issued by NWS

Home | Current Version | Previous Version | Graphics & Text | Print | Product List | Glossary On
Versions: 1 2 3 4 5 6 7 8 9 10 11 12 13 14 15 16 17 18 19 20 21 22 23 24 25 26 27 28 29 30 31 32 33 34 35 36 37 38 39 40 41 42 43 44 45 46 47 48 49 50
000
ASUS43 KOAX 180710
RWRNE

WEATHER ROUNDUP FOR NEBRASKA
NATIONAL WEATHER SERVICE OMAHA NE
100 AM CST SAT NOV 18 2017

NOTES: SATELLITE DATA IS BEING USED TO AUGMENT CLOUD COVER ABOVE
       12000 FEET.
       "FAIR" INDICATES FEW OR NO CLOUDS BELOW 12,000 FEET WITH NO
       SIGNIFICANT WEATHER AND/OR OBSTRUCTIONS TO VISIBILITY.


NEZ001>004-019>022-054>056-180800-
NEBRASKA PANHANDLE

CITY           SKY/WX    TMP DP  RH WIND       PRES   REMARKS
SCOTTSBLUFF    CLOUDY    38  28  67 NW20      29.91R WCI  28
ALLIANCE       CLOUDY    35  34  96 N14       29.88R WCI  26
CHADRON        CLOUDY    37  34  89 NW12      29.92R WCI  29
GORDON         PTSUNNY   36  34  92 NW8       29.87R WCI  30
KIMBALL        CLOUDY    33  31  94 NW20G30   29.91R WCI  21
SIDNEY         CLOUDY    36  30  79 N20       29.89R WCI  25
$$

NEZ057>060-069>072-079>082-180800-
SOUTHWEST NEBRASKA

CITY           SKY/WX    TMP DP  RH WIND       PRES   REMARKS
NORTH PLATTE   LGT RAIN  40  37  89 N9        29.81R WCI  34
LEXINGTON      LGT RAIN  41  37  87 N12       29.76R
MCCOOK         RAIN      41  40  96 NW14      29.76R FOG
OGALLALA       DRIZZLE   42  38  86 N17G23    29.82R
$$

NEZ005>010-023>029-035>040-094-180800-
NORTH CENTRAL NEBRASKA

CITY           SKY/WX    TMP DP  RH WIND       PRES   REMARKS
VALENTINE      MIX PCPN  37  35  92 NW8       29.84R WCI  31
AINSWORTH      DRIZZLE   35  35 100 N10       29.82R WCI  27
BROKEN BOW     LGT RAIN  39  35  86 N20G26    29.76R WCI  29
O`NEILL        CLOUDY    38  36  89 N15       29.76S WCI  30
ORD            CLOUDY    40  37  89 N15       29.73R WCI  32
THEDFORD       LGT RAIN  35  34  96 N8        29.82R WCI  29
$$

NEZ041-046>049-061>064-073>077-083>087-180800-
SOUTH CENTRAL NEBRASKA

CITY           SKY/WX    TMP DP  RH WIND       PRES   REMARKS
GRAND ISLAND   LGT RAIN  40  39  97 N17       29.69R WCI  31
AURORA         LGT SNOW  40  38  95 N22       29.67R WCI  30
HASTINGS       LGT RAIN  40  38  93 N22G29    29.66S WCI  30
HEBRON         PTCLDY    44  39  81 N15G21    29.60R
HOLDREGE       LGT RAIN  40  39  97 N13G18    29.73R WCI  33
KEARNEY        LGT RAIN  39  37  93 N18       29.71R WCI  30
YORK           LGT RAIN  41  41 100 N13G21    29.65R
$$

NEZ011>018-030>034-042>045-180800-
NORTHEAST NEBRASKA

CITY           SKY/WX    TMP DP  RH WIND       PRES   REMARKS
NORFOLK        CLOUDY    40  38  93 N14       29.69R WCI  32
ALBION         DRIZZLE   41  37  85 N14       29.71R
BLAIR          RAIN      42  40  92 N21G26    29.59F
COLUMBUS       CLOUDY    40  38  93 N14       29.67R WCI  32
FREMONT        LGT RAIN  41  40  95 N12G18    29.63F
TEKAMAH        CLOUDY    41  38  89 N16       29.65F
WAYNE          CLOUDY    39  37  91 N10       29.68S WCI  32
$$

NEZ050>053-065>068-078-088>093-180800-
SOUTHEAST NEBRASKA

CITY           SKY/WX    TMP DP  RH WIND       PRES   REMARKS
LINCOLN        CLOUDY    44  39  82 NE16      29.60F
OMAHA EPPLEY   LGT RAIN  44  39  82 N16       29.59R
BEATRICE       CLOUDY    47  41  80 N18G24    29.56S
FALLS CITY     LGT RAIN  53  51  93 N17G24    29.48R
NEBRASKA CITY  CLOUDY    48  48 100 N18G26    29.53F FOG
PLATTSMOUTH    DRIZZLE   46  44  93 N14G21    29.57F
$$

NEZ044-045-051>053-067-180800-
OMAHA AREA

CITY           SKY/WX    TMP DP  RH WIND       PRES   REMARKS
OMAHA EPPLEY   LGT RAIN  44  39  82 N16       29.59R
BLAIR          RAIN      42  40  92 N21G26    29.59F
FREMONT        LGT RAIN  41  40  95 N12G18    29.63F
MILLARD        CLOUDY    46  41  81 N7G20     29.59F
OFFUTT AFB     CLOUDY    45  41  87 N13G20    29.58R
PLATTSMOUTH    DRIZZLE   46  44  93 N14G21    29.57F
WAHOO          RAIN      42  40  92 N21G30    29.60F
$$



USA.gov is the U.S. government's official web portal to all federal, state and local government web resources and services.